| time (UTC) | temp F | wind direction | speed MPH | gust MPH | rain 1hr in | rain 24hr in | rain mn in | humidity % | barometer mb |
| 20260904185004 | 77 | 219 | 2.0 | 7.0 | 0.00 | 0.00 | 0.00 | 58 | 1012.2 |
| 20260904184504 | 78 | 246 | 2.0 | 5.0 | 0.00 | 0.00 | 0.00 | 57 | 1012.2 |
| 20260904184004 | 78 | 238 | 1.0 | 7.0 | 0.00 | 0.00 | 0.00 | 57 | 1012.2 |
| 20260904183505 | 78 | 249 | 1.0 | 3.0 | 0.00 | 0.00 | 0.00 | 56 | 1012.1 |
| 20260904183005 | 79 | 282 | 1.0 | 7.0 | 0.00 | 0.00 | 0.00 | 56 | 1012.1 |
| 20260904182504 | 79 | 236 | 2.0 | 5.0 | 0.00 | 0.00 | 0.00 | 55 | 1012.2 |
| 20260904182005 | 79 | 45 | 2.0 | 13.0 | 0.00 | 0.00 | 0.00 | 55 | 1012.1 |
| 20260904181505 | 79 | 314 | 2.0 | 16.0 | 0.00 | 0.00 | 0.00 | 54 | 1012.1 |
| 20260904180504 | 79 | 192 | 2.0 | 13.0 | 0.00 | 0.00 | 0.00 | 54 | 1012.1 |
| 20260904180006 | 79 | 299 | 2.0 | 12.0 | 0.00 | 0.00 | 0.00 | 54 | 1011.9 |
| 20260904175004 | 80 | 324 | 3.0 | 10.0 | 0.00 | 0.00 | 0.00 | 53 | 1012.1 |
| 20260904174506 | 80 | 153 | 3.0 | 7.0 | 0.00 | 0.00 | 0.00 | 53 | 1012.0 |
| 20260904174004 | 80 | 211 | 2.0 | 10.0 | 0.00 | 0.00 | 0.00 | 53 | 1011.9 |
| 20260904173504 | 80 | 224 | 2.0 | 9.0 | 0.00 | 0.00 | 0.00 | 52 | 1011.9 |
| 20260904172504 | 80 | 188 | 3.0 | 7.0 | 0.00 | 0.00 | 0.00 | 51 | 1011.8 |
| 20260904172004 | 80 | 26 | 2.0 | 5.0 | 0.00 | 0.00 | 0.00 | 51 | 1011.8 |
| 20260904171504 | 80 | 326 | 2.0 | 5.0 | 0.00 | 0.00 | 0.00 | 52 | 1011.8 |
| 20260904171005 | 81 | 289 | 5.0 | 8.0 | 0.00 | 0.00 | 0.00 | 51 | 1011.8 |
| 20260904170504 | 80 | 140 | 2.0 | 9.0 | 0.00 | 0.00 | 0.00 | 52 | 1011.8 |
| 20260904170004 | 81 | 299 | 4.0 | 10.0 | 0.00 | 0.00 | 0.00 | 51 | 1011.8 |
| 20260904165504 | 81 | 249 | 3.0 | 9.0 | 0.00 | 0.00 | 0.00 | 51 | 1011.8 |
| 20260904165005 | 81 | 261 | 4.0 | 12.0 | 0.00 | 0.00 | 0.00 | 51 | 1012.0 |
| 20260904164505 | 81 | 239 | 2.0 | 9.0 | 0.00 | 0.00 | 0.00 | 51 | 1011.9 |
| 20260904163505 | 81 | 204 | 4.0 | 10.0 | 0.00 | 0.00 | 0.00 | 52 | 1012.0 |
| 20260904163005 | 81 | 330 | 3.0 | 7.0 | 0.00 | 0.00 | 0.00 | 52 | 1011.9 |
| 20260904162505 | 81 | 283 | 5.0 | 12.0 | 0.00 | 0.00 | 0.00 | 52 | 1012.0 |
| 20260904161504 | 81 | 237 | 3.0 | 12.0 | 0.00 | 0.00 | 0.00 | 52 | 1011.9 |
| 20260904161005 | 82 | 219 | 3.0 | 6.0 | 0.00 | 0.00 | 0.00 | 52 | 1012.0 |
| 20260904160504 | 81 | 327 | 2.0 | 7.0 | 0.00 | 0.00 | 0.00 | 52 | 1011.9 |
| 20260904160004 | 81 | 245 | 3.0 | 9.0 | 0.00 | 0.00 | 0.00 | 51 | 1011.9 |
| 20260904155504 | 81 | 217 | 4.0 | 9.0 | 0.00 | 0.00 | 0.00 | 51 | 1011.9 |
| 20260904155004 | 82 | 221 | 6.0 | 17.0 | 0.00 | 0.00 | 0.00 | 50 | 1011.9 |
| 20260904154504 | 82 | 233 | 6.0 | 12.0 | 0.00 | 0.00 | 0.00 | 50 | 1011.9 |
| 20260904154004 | 83 | 285 | 3.0 | 12.0 | 0.00 | 0.00 | 0.00 | 50 | 1011.9 |
| 20260904153504 | 83 | 208 | 5.0 | 12.0 | 0.00 | 0.00 | 0.00 | 50 | 1011.8 |
| 20260904153005 | 83 | 220 | 3.0 | 12.0 | 0.00 | 0.00 | 0.00 | 50 | 1011.7 |
| 20260904152504 | 83 | 225 | 4.0 | 12.0 | 0.00 | 0.00 | 0.00 | 50 | 1011.7 |
| 20260904152004 | 83 | 203 | 4.0 | 12.0 | 0.00 | 0.00 | 0.00 | 50 | 1011.7 |
| 20260904151005 | 83 | 248 | 2.0 | 8.0 | 0.00 | 0.00 | 0.00 | 52 | 1011.7 |
| 20260904150504 | 83 | 231 | 5.0 | 10.0 | 0.00 | 0.00 | 0.00 | 50 | 1011.7 |
| 20260904150004 | 83 | 259 | 5.0 | 13.0 | 0.00 | 0.00 | 0.00 | 49 | 1011.7 |
| 20260904145004 | 83 | 270 | 5.0 | 16.0 | 0.00 | 0.00 | 0.00 | 49 | 1011.6 |
| 20260904144504 | 83 | 163 | 5.0 | 15.0 | 0.00 | 0.00 | 0.00 | 50 | 1011.6 |
| 20260904144005 | 83 | 248 | 5.0 | 15.0 | 0.00 | 0.00 | 0.00 | 49 | 1011.5 |
| 20260904143504 | 83 | 248 | 3.0 | 10.0 | 0.00 | 0.00 | 0.00 | 50 | 1011.6 |
| 20260904143004 | 84 | 273 | 6.0 | 15.0 | 0.00 | 0.00 | 0.00 | 48 | 1011.6 |
| 20260904142504 | 84 | 216 | 5.0 | 13.0 | 0.00 | 0.00 | 0.00 | 50 | 1011.7 |
| 20260904142004 | 84 | 238 | 5.0 | 14.0 | 0.00 | 0.00 | 0.00 | 49 | 1011.7 |
| 20260904141504 | 84 | 15 | 3.0 | 9.0 | 0.00 | 0.00 | 0.00 | 50 | 1011.7 |
| 20260904141005 | 84 | 241 | 7.0 | 13.0 | 0.00 | 0.00 | 0.00 | 50 | 1011.8 |
| 20260904140504 | 84 | 257 | 7.0 | 17.0 | 0.00 | 0.00 | 0.00 | 49 | 1012.0 |
| 20260904135504 | 84 | 219 | 5.0 | 15.0 | 0.00 | 0.00 | 0.00 | 50 | 1012.0 |
| 20260904135004 | 84 | 238 | 7.0 | 18.0 | 0.00 | 0.00 | 0.00 | 49 | 1012.2 |
| 20260904134504 | 83 | 232 | 3.0 | 12.0 | 0.00 | 0.00 | 0.00 | 52 | 1012.2 |
| 20260904134005 | 82 | 237 | 6.0 | 12.0 | 0.00 | 0.00 | 0.00 | 53 | 1012.2 |
| 20260904133505 | 83 | 215 | 7.0 | 14.0 | 0.00 | 0.00 | 0.00 | 51 | 1012.4 |
| 20260904133005 | 83 | 141 | 3.0 | 20.0 | 0.00 | 0.00 | 0.00 | 51 | 1012.4 |
| 20260904132504 | 83 | 211 | 5.0 | 10.0 | 0.00 | 0.00 | 0.00 | 51 | 1012.5 |
| 20260904132004 | 83 | 234 | 7.0 | 17.0 | 0.00 | 0.00 | 0.00 | 51 | 1012.6 |
| 20260904131504 | 83 | 231 | 9.0 | 21.0 | 0.00 | 0.00 | 0.00 | 53 | 1012.7 |
| 20260904131005 | 83 | 230 | 4.0 | 12.0 | 0.00 | 0.00 | 0.00 | 54 | 1012.6 |
| 20260904130504 | 82 | 215 | 5.0 | 12.0 | 0.00 | 0.00 | 0.00 | 54 | 1012.8 |
| 20260904130004 | 83 | 202 | 3.0 | 8.0 | 0.00 | 0.00 | 0.00 | 54 | 1012.8 |
| 20260904125504 | 82 | 209 | 7.0 | 15.0 | 0.00 | 0.00 | 0.00 | 54 | 1012.9 |
| 20260904125004 | 82 | 256 | 6.0 | 18.0 | 0.00 | 0.00 | 0.00 | 54 | 1013.0 |
| 20260904124504 | 82 | 215 | 10.0 | 17.0 | 0.00 | 0.00 | 0.00 | 54 | 1013.1 |
| 20260904124004 | 82 | 202 | 6.0 | 17.0 | 0.00 | 0.00 | 0.00 | 56 | 1013.1 |
| 20260904123504 | 83 | 249 | 5.0 | 15.0 | 0.00 | 0.00 | 0.00 | 54 | 1013.3 |
| 20260904123004 | 82 | 238 | 7.0 | 20.0 | 0.00 | 0.00 | 0.00 | 55 | 1013.3 |
| 20260904122004 | 81 | 198 | 6.0 | 10.0 | 0.00 | 0.00 | 0.00 | 56 | 1013.3 |
| 20260904121504 | 81 | 251 | 2.0 | 9.0 | 0.00 | 0.00 | 0.00 | 57 | 1013.5 |
| 20260904121004 | 81 | 222 | 6.0 | 13.0 | 0.00 | 0.00 | 0.00 | 56 | 1013.6 |
| 20260904120006 | 82 | 227 | 6.0 | 10.0 | 0.00 | 0.00 | 0.00 | 56 | 1013.8 |
| 20260904115004 | 81 | 221 | 7.0 | 20.0 | 0.00 | 0.00 | 0.00 | 55 | 1013.8 |
| 20260904114504 | 82 | 228 | 7.0 | 12.0 | 0.00 | 0.00 | 0.00 | 55 | 1014.0 |
| 20260904114004 | 82 | 276 | 2.0 | 12.0 | 0.00 | 0.00 | 0.00 | 55 | 1014.0 |
| 20260904113504 | 81 | 321 | 5.0 | 15.0 | 0.00 | 0.00 | 0.00 | 56 | 1014.1 |
| 20260904113004 | 82 | 268 | 7.0 | 15.0 | 0.00 | 0.00 | 0.00 | 55 | 1014.1 |
| 20260904112505 | 82 | 239 | 4.0 | 12.0 | 0.00 | 0.00 | 0.00 | 55 | 1014.1 |
| 20260904112005 | 81 | 186 | 5.0 | 12.0 | 0.00 | 0.00 | 0.00 | 55 | 1014.2 |
| 20260904111503 | 81 | 217 | 3.0 | 14.0 | 0.00 | 0.00 | 0.00 | 55 | 1014.2 |
| 20260904111005 | 81 | 253 | 3.0 | 12.0 | 0.00 | 0.00 | 0.00 | 56 | 1014.3 |
| 20260904110503 | 81 | 214 | 3.0 | 20.0 | 0.00 | 0.00 | 0.00 | 56 | 1014.4 |
| 20260904110004 | 82 | 236 | 7.0 | 16.0 | 0.00 | 0.00 | 0.00 | 54 | 1014.5 |
| 20260904105004 | 81 | 200 | 5.0 | 10.0 | 0.00 | 0.00 | 0.00 | 55 | 1014.4 |
| 20260904104504 | 81 | 210 | 7.0 | 21.0 | 0.00 | 0.00 | 0.00 | 56 | 1014.4 |
| 20260904104004 | 81 | 214 | 3.0 | 8.0 | 0.00 | 0.00 | 0.00 | 55 | 1014.5 |
| 20260904103504 | 81 | 206 | 5.0 | 15.0 | 0.00 | 0.00 | 0.00 | 56 | 1014.5 |
| 20260904102504 | 80 | 240 | 7.0 | 15.0 | 0.00 | 0.00 | 0.00 | 56 | 1014.7 |
| 20260904102004 | 81 | 216 | 7.0 | 16.0 | 0.00 | 0.00 | 0.00 | 55 | 1014.6 |
| 20260904101005 | 80 | 239 | 4.0 | 12.0 | 0.00 | 0.00 | 0.00 | 57 | 1014.8 |
| 20260904095504 | 79 | 239 | 7.0 | 14.0 | 0.00 | 0.00 | 0.00 | 58 | 1015.1 |
| 20260904095004 | 79 | 232 | 5.0 | 16.0 | 0.00 | 0.00 | 0.00 | 58 | 1015.2 |
| 20260904094005 | 79 | 247 | 7.0 | 17.0 | 0.00 | 0.00 | 0.00 | 60 | 1015.3 |
| 20260904093504 | 79 | 228 | 8.0 | 16.0 | 0.00 | 0.00 | 0.00 | 62 | 1015.4 |
| 20260904093004 | 79 | 201 | 8.0 | 13.0 | 0.00 | 0.00 | 0.00 | 62 | 1015.4 |
| 20260904092004 | 78 | 223 | 4.0 | 14.0 | 0.00 | 0.00 | 0.00 | 63 | 1015.6 |
| 20260904091504 | 78 | 204 | 5.0 | 14.0 | 0.00 | 0.00 | 0.00 | 64 | 1015.5 |
| 20260904091005 | 77 | 242 | 5.0 | 13.0 | 0.00 | 0.00 | 0.00 | 63 | 1015.6 |
| 20260904090503 | 77 | 207 | 7.0 | 15.0 | 0.00 | 0.00 | 0.00 | 64 | 1015.8 |
| 20260904085504 | 76 | 211 | 6.0 | 13.0 | 0.00 | 0.00 | 0.00 | 64 | 1015.8 |
| 20260904084005 | 76 | 216 | 7.0 | 13.0 | 0.00 | 0.00 | 0.00 | 65 | 1016.1 |
| 20260904083504 | 75 | 202 | 6.0 | 13.0 | 0.00 | 0.00 | 0.00 | 65 | 1016.1 |
| 20260904082504 | 75 | 210 | 7.0 | 12.0 | 0.00 | 0.00 | 0.00 | 66 | 1016.2 |
| 20260904082004 | 75 | 210 | 8.0 | 14.0 | 0.00 | 0.00 | 0.00 | 66 | 1016.2 |
| 20260904081504 | 74 | 189 | 6.0 | 13.0 | 0.00 | 0.00 | 0.00 | 66 | 1016.3 |
| 20260904081005 | 74 | 201 | 6.0 | 14.0 | 0.00 | 0.00 | 0.00 | 66 | 1016.3 |
| 20260904080505 | 74 | 257 | 5.0 | 12.0 | 0.00 | 0.00 | 0.00 | 66 | 1016.4 |
| 20260904075503 | 73 | 237 | 3.0 | 15.0 | 0.00 | 0.00 | 0.00 | 68 | 1016.4 |
| 20260904075004 | 73 | 218 | 5.0 | 15.0 | 0.00 | 0.00 | 0.00 | 67 | 1016.5 |
| 20260904074504 | 73 | 209 | 5.0 | 13.0 | 0.00 | 0.00 | 0.00 | 67 | 1016.5 |
| 20260904074004 | 73 | 238 | 6.0 | 13.0 | 0.00 | 0.00 | 0.00 | 67 | 1016.5 |
| 20260904073504 | 72 | 201 | 5.0 | 10.0 | 0.00 | 0.00 | 0.00 | 68 | 1016.5 |
| 20260904073003 | 72 | 231 | 5.0 | 9.0 | 0.00 | 0.00 | 0.00 | 68 | 1016.6 |
| 20260904072504 | 72 | 243 | 5.0 | 12.0 | 0.00 | 0.00 | 0.00 | 70 | 1016.7 |
| 20260904072003 | 71 | 203 | 2.0 | 6.0 | 0.00 | 0.00 | 0.00 | 70 | 1016.8 |
| 20260904071504 | 71 | 201 | 2.0 | 3.0 | 0.00 | 0.00 | 0.00 | 71 | 1016.8 |
| 20260904071005 | 70 | 187 | 3.0 | 6.0 | 0.00 | 0.00 | 0.00 | 71 | 1016.8 |
| 20260904070504 | 69 | 186 | 3.0 | 5.0 | 0.00 | 0.00 | 0.00 | 71 | 1016.9 |
| 20260904070004 | 68 | 173 | 1.0 | 3.0 | 0.00 | 0.00 | 0.00 | 73 | 1017.0 |
| 20260904065504 | 68 | 192 | 1.0 | 2.0 | 0.00 | 0.00 | 0.00 | 73 | 1017.0 |
| 20260904065004 | 68 | 185 | 3.0 | 3.0 | 0.00 | 0.00 | 0.00 | 73 | 1017.0 |
| 20260904064505 | 68 | 213 | 2.0 | 3.0 | 0.00 | 0.00 | 0.00 | 74 | 1017.0 |
| 20260904064004 | 68 | 194 | 3.0 | 6.0 | 0.00 | 0.00 | 0.00 | 73 | 1017.1 |
| 20260904063503 | 69 | 187 | 3.0 | 5.0 | 0.00 | 0.00 | 0.00 | 74 | 1017.2 |
| 20260904063004 | 68 | 202 | 2.0 | 5.0 | 0.00 | 0.00 | 0.00 | 75 | 1017.1 |
| 20260904062504 | 68 | 216 | 2.0 | 3.0 | 0.00 | 0.00 | 0.00 | 75 | 1017.2 |
| 20260904062003 | 67 | 202 | 2.0 | 3.0 | 0.00 | 0.00 | 0.00 | 77 | 1017.2 |
| 20260904061504 | 66 | 209 | 2.0 | 3.0 | 0.00 | 0.00 | 0.00 | 79 | 1017.2 |
| 20260904061004 | 66 | 210 | 1.0 | 2.0 | 0.00 | 0.00 | 0.00 | 79 | 1017.2 |
| 20260904060504 | 66 | 210 | 1.0 | 2.0 | 0.00 | 0.00 | 0.00 | 79 | 1017.3 |
| 20260904060004 | 66 | 211 | 2.0 | 3.0 | 0.00 | 0.00 | 0.00 | 79 | 1017.3 |
| 20260904055504 | 65 | 210 | 1.0 | 3.0 | 0.00 | 0.00 | 0.00 | 79 | 1017.2 |
| 20260904054004 | 65 | 203 | 2.0 | 3.0 | 0.00 | 0.00 | 0.00 | 79 | 1017.3 |
| 20260904053504 | 65 | 200 | 3.0 | 3.0 | 0.00 | 0.00 | 0.00 | 79 | 1017.3 |
| 20260904053004 | 65 | 203 | 2.0 | 3.0 | 0.00 | 0.00 | 0.00 | 79 | 1017.3 |
| 20260904052504 | 65 | 203 | 2.0 | 3.0 | 0.00 | 0.00 | 0.00 | 80 | 1017.3 |
| 20260904052004 | 65 | 203 | 2.0 | 3.0 | 0.00 | 0.00 | 0.00 | 79 | 1017.3 |
| 20260904051506 | 65 | 198 | 3.0 | 3.0 | 0.00 | 0.00 | 0.00 | 79 | 1017.3 |
| 20260904051006 | 66 | 206 | 2.0 | 3.0 | 0.00 | 0.00 | 0.00 | 79 | 1017.3 |
| 20260904050504 | 66 | 203 | 2.0 | 3.0 | 0.00 | 0.00 | 0.00 | 79 | 1017.4 |
| 20260904050004 | 66 | 227 | 2.0 | 3.0 | 0.00 | 0.00 | 0.00 | 78 | 1017.3 |
| 20260904045504 | 66 | 217 | 2.0 | 3.0 | 0.00 | 0.00 | 0.00 | 79 | 1017.4 |
| 20260904045004 | 66 | 213 | 1.0 | 3.0 | 0.00 | 0.00 | 0.00 | 78 | 1017.4 |
| 20260904044004 | 66 | 211 | 1.0 | 3.0 | 0.00 | 0.00 | 0.00 | 79 | 1017.4 |
| 20260904043504 | 66 | 210 | 2.0 | 3.0 | 0.00 | 0.00 | 0.00 | 79 | 1017.4 |
| 20260904043003 | 65 | 208 | 2.0 | 3.0 | 0.00 | 0.00 | 0.00 | 79 | 1017.5 |
| 20260904042005 | 66 | 202 | 3.0 | 5.0 | 0.00 | 0.00 | 0.00 | 78 | 1017.6 |
| 20260904041503 | 66 | 201 | 2.0 | 3.0 | 0.00 | 0.00 | 0.00 | 78 | 1017.5 |
| 20260904041005 | 66 | 203 | 3.0 | 5.0 | 0.00 | 0.00 | 0.00 | 78 | 1017.6 |
| 20260904040504 | 66 | 200 | 3.0 | 5.0 | 0.00 | 0.00 | 0.00 | 78 | 1017.7 |
| 20260904040003 | 66 | 197 | 3.0 | 6.0 | 0.00 | 0.00 | 0.00 | 78 | 1017.8 |
| 20260904035504 | 66 | 210 | 5.0 | 6.0 | 0.00 | 0.00 | 0.00 | 78 | 1017.8 |
| 20260904035004 | 66 | 199 | 5.0 | 7.0 | 0.00 | 0.00 | 0.00 | 78 | 1017.9 |
| 20260904034508 | 65 | 203 | 3.0 | 6.0 | 0.00 | 0.00 | 0.00 | 79 | 1017.9 |
| 20260904034007 | 65 | 202 | 3.0 | 6.0 | 0.00 | 0.00 | 0.00 | 79 | 1017.9 |
| 20260904033508 | 65 | 205 | 4.0 | 6.0 | 0.00 | 0.00 | 0.00 | 80 | 1017.9 |
| 20260904032507 | 65 | 207 | 3.0 | 3.0 | 0.00 | 0.00 | 0.00 | 79 | 1018.0 |
| 20260904031508 | 65 | 203 | 2.0 | 3.0 | 0.00 | 0.00 | 0.00 | 79 | 1017.9 |
| 20260904031008 | 65 | 201 | 2.0 | 3.0 | 0.00 | 0.00 | 0.00 | 79 | 1017.9 |
| 20260904030508 | 65 | 197 | 2.0 | 3.0 | 0.00 | 0.00 | 0.00 | 79 | 1017.9 |
| 20260904030008 | 65 | 202 | 3.0 | 5.0 | 0.00 | 0.00 | 0.00 | 78 | 1017.9 |
| 20260904025507 | 65 | 208 | 4.0 | 6.0 | 0.00 | 0.00 | 0.00 | 78 | 1017.9 |
| 20260904025008 | 65 | 211 | 3.0 | 7.0 | 0.00 | 0.00 | 0.00 | 77 | 1017.9 |
| 20260904024008 | 66 | 203 | 3.0 | 6.0 | 0.00 | 0.00 | 0.00 | 77 | 1018.1 |
| 20260904023508 | 66 | 205 | 4.0 | 6.0 | 0.00 | 0.00 | 0.00 | 77 | 1018.0 |
| 20260904023007 | 66 | 214 | 3.0 | 5.0 | 0.00 | 0.00 | 0.00 | 77 | 1018.1 |
| 20260904022507 | 66 | 191 | 4.0 | 6.0 | 0.00 | 0.00 | 0.00 | 76 | 1018.1 |
| 20260904022007 | 66 | 196 | 3.0 | 6.0 | 0.00 | 0.00 | 0.00 | 76 | 1018.2 |
| 20260904021507 | 65 | 196 | 3.0 | 5.0 | 0.00 | 0.00 | 0.00 | 76 | 1018.2 |
| 20260904021009 | 66 | 199 | 2.0 | 3.0 | 0.00 | 0.00 | 0.00 | 76 | 1018.3 |
| 20260904020008 | 66 | 206 | 3.0 | 5.0 | 0.00 | 0.00 | 0.00 | 74 | 1018.4 |
| 20260904015507 | 67 | 206 | 2.0 | 8.0 | 0.00 | 0.00 | 0.00 | 74 | 1018.4 |
| 20260904015008 | 67 | 207 | 2.0 | 5.0 | 0.00 | 0.00 | 0.00 | 73 | 1018.4 |
| 20260904014507 | 68 | 198 | 2.0 | 3.0 | 0.00 | 0.00 | 0.00 | 72 | 1018.4 |
| 20260904013507 | 68 | 219 | 2.0 | 3.0 | 0.00 | 0.00 | 0.00 | 72 | 1018.5 |
| 20260904013007 | 68 | 199 | 2.0 | 3.0 | 0.00 | 0.00 | 0.00 | 71 | 1018.5 |
| 20260904012508 | 68 | 219 | 1.0 | 3.0 | 0.00 | 0.00 | 0.00 | 71 | 1018.5 |
| 20260904012008 | 68 | 249 | 2.0 | 3.0 | 0.00 | 0.00 | 0.00 | 71 | 1018.6 |
| 20260904011507 | 68 | 209 | 3.0 | 5.0 | 0.00 | 0.00 | 0.00 | 70 | 1018.7 |
| 20260904011008 | 69 | 225 | 3.0 | 7.0 | 0.00 | 0.00 | 0.00 | 70 | 1018.6 |
| 20260904010007 | 68 | 191 | 1.0 | 3.0 | 0.00 | 0.00 | 0.00 | 70 | 1018.7 |
| 20260904005507 | 68 | 217 | 3.0 | 6.0 | 0.00 | 0.00 | 0.00 | 70 | 1018.7 |
| 20260904005007 | 68 | 194 | 1.0 | 3.0 | 0.00 | 0.00 | 0.00 | 71 | 1018.8 |
| 20260904004508 | 68 | 210 | 2.0 | 3.0 | 0.00 | 0.00 | 0.00 | 70 | 1018.8 |
| 20260904004008 | 68 | 224 | 3.0 | 5.0 | 0.00 | 0.00 | 0.00 | 70 | 1018.7 |
| 20260904003507 | 68 | 196 | 3.0 | 5.0 | 0.00 | 0.00 | 0.00 | 70 | 1018.7 |
| 20260904003007 | 68 | 202 | 3.0 | 5.0 | 0.00 | 0.00 | 0.00 | 70 | 1018.8 |
| 20260904002507 | 68 | 201 | 2.0 | 3.0 | 0.00 | 0.00 | 0.00 | 70 | 1018.9 |
| 20260904002007 | 68 | 204 | 3.0 | 5.0 | 0.00 | 0.00 | 0.00 | 70 | 1018.8 |
| 20260904001507 | 68 | 207 | 3.0 | 6.0 | 0.00 | 0.00 | 0.00 | 69 | 1018.9 |
| 20260904001008 | 68 | 222 | 3.0 | 7.0 | 0.00 | 0.00 | 0.00 | 70 | 1019.0 |
| 20260904000507 | 68 | 199 | 4.0 | 6.0 | 0.00 | 0.00 | 0.00 | 70 | 1019.0 |
| 20260904000007 | 68 | 207 | 3.0 | 7.0 | 0.00 | 0.00 | 0.00 | 71 | 1019.2 |
| 20260903235507 | 68 | 216 | 3.0 | 5.0 | 0.00 | 0.00 | 0.00 | 71 | 1019.2 |
| 20260903235008 | 67 | 212 | 2.0 | 3.0 | 0.00 | 0.00 | 0.00 | 71 | 1019.3 |
| 20260903234507 | 68 | 210 | 3.0 | 3.0 | 0.00 | 0.00 | 0.00 | 71 | 1019.3 |
| 20260903234008 | 68 | 211 | 3.0 | 3.0 | 0.00 | 0.00 | 0.00 | 70 | 1019.4 |
| 20260903233507 | 69 | 204 | 3.0 | 5.0 | 0.00 | 0.00 | 0.00 | 69 | 1019.4 |
| 20260903233008 | 69 | 221 | 3.0 | 5.0 | 0.00 | 0.00 | 0.00 | 69 | 1019.6 |
| 20260903232508 | 69 | 206 | 2.0 | 5.0 | 0.00 | 0.00 | 0.00 | 68 | 1019.6 |
| 20260903232007 | 69 | 192 | 3.0 | 6.0 | 0.00 | 0.00 | 0.00 | 68 | 1019.6 |
| 20260903231507 | 69 | 205 | 2.0 | 7.0 | 0.00 | 0.00 | 0.00 | 68 | 1019.7 |
| 20260903231008 | 69 | 200 | 2.0 | 3.0 | 0.00 | 0.00 | 0.00 | 68 | 1019.6 |
| 20260903230507 | 69 | 214 | 1.0 | 3.0 | 0.00 | 0.00 | 0.00 | 68 | 1019.7 |
| 20260903230007 | 69 | 218 | 2.0 | 3.0 | 0.00 | 0.00 | 0.00 | 68 | 1019.8 |
| 20260903225508 | 69 | 201 | 2.0 | 3.0 | 0.00 | 0.00 | 0.00 | 67 | 1019.8 |
| 20260903224507 | 69 | 215 | 2.0 | 3.0 | 0.00 | 0.00 | 0.00 | 68 | 1019.9 |
| 20260903224007 | 69 | 209 | 1.0 | 3.0 | 0.00 | 0.00 | 0.00 | 68 | 1019.9 |
| 20260903223007 | 69 | 206 | 2.0 | 3.0 | 0.00 | 0.00 | 0.00 | 68 | 1019.9 |
| 20260903222007 | 69 | 200 | 3.0 | 3.0 | 0.00 | 0.00 | 0.00 | 68 | 1020.0 |
| 20260903221507 | 68 | 221 | 2.0 | 3.0 | 0.00 | 0.00 | 0.00 | 69 | 1020.1 |
| 20260903221008 | 68 | 225 | 3.0 | 5.0 | 0.00 | 0.00 | 0.00 | 68 | 1020.0 |
| 20260903220508 | 69 | 243 | 2.0 | 3.0 | 0.00 | 0.00 | 0.00 | 68 | 1019.9 |
| 20260903220007 | 68 | 228 | 2.0 | 5.0 | 0.00 | 0.00 | 0.00 | 68 | 1019.9 |
| 20260903215008 | 67 | 210 | 1.0 | 2.0 | 0.00 | 0.00 | 0.00 | 69 | 1019.8 |
| 20260903214507 | 68 | 210 | 1.0 | 2.0 | 0.00 | 0.00 | 0.00 | 68 | 1019.8 |
| 20260903214007 | 68 | 210 | 0.0 | 2.0 | 0.00 | 0.00 | 0.00 | 68 | 1019.8 |
| 20260903213507 | 68 | 210 | 1.0 | 2.0 | 0.00 | 0.00 | 0.00 | 68 | 1019.8 |
| 20260903212507 | 68 | 203 | 2.0 | 3.0 | 0.00 | 0.00 | 0.00 | 68 | 1019.8 |
| 20260903212008 | 68 | 202 | 1.0 | 2.0 | 0.00 | 0.00 | 0.00 | 67 | 1019.8 |
| 20260903211008 | 68 | 202 | 2.0 | 3.0 | 0.00 | 0.00 | 0.00 | 67 | 1019.9 |
| 20260903210007 | 67 | 211 | 1.0 | 3.0 | 0.00 | 0.00 | 0.00 | 68 | 1019.9 |
| 20260903205508 | 68 | 211 | 0.0 | 2.0 | 0.00 | 0.00 | 0.00 | 67 | 1020.0 |
| 20260903205007 | 68 | 211 | 2.0 | 3.0 | 0.00 | 0.00 | 0.00 | 67 | 1019.9 |
| 20260903203507 | 67 | 208 | 2.0 | 3.0 | 0.00 | 0.00 | 0.00 | 68 | 1020.1 |
| 20260903203007 | 67 | 217 | 2.0 | 2.0 | 0.00 | 0.00 | 0.00 | 68 | 1020.2 |
| 20260903202507 | 67 | 217 | 2.0 | 3.0 | 0.00 | 0.00 | 0.00 | 67 | 1020.2 |
| 20260903202007 | 67 | 219 | 1.0 | 3.0 | 0.00 | 0.00 | 0.00 | 67 | 1020.1 |
| 20260903201507 | 67 | 242 | 2.0 | 3.0 | 0.00 | 0.00 | 0.00 | 67 | 1020.1 |
| 20260903201008 | 67 | 204 | 1.0 | 3.0 | 0.00 | 0.00 | 0.00 | 67 | 1020.1 |
| 20260903200507 | 67 | 207 | 1.0 | 3.0 | 0.00 | 0.00 | 0.00 | 67 | 1020.0 |
| 20260903195507 | 67 | 217 | 1.0 | 1.0 | 0.00 | 0.00 | 0.00 | 67 | 1020.0 |
| 20260903194507 | 68 | 217 | 1.0 | 2.0 | 0.00 | 0.00 | 0.00 | 66 | 1019.9 |
| 20260903194007 | 69 | 216 | 0.0 | 2.0 | 0.00 | 0.00 | 0.00 | 66 | 1019.8 |
| 20260903193507 | 69 | 214 | 1.0 | 2.0 | 0.00 | 0.00 | 0.00 | 65 | 1019.7 |
| 20260903193007 | 69 | 208 | 0.0 | 2.0 | 0.00 | 0.00 | 0.00 | 65 | 1019.7 |
| 20260903192007 | 70 | 229 | 2.0 | 5.0 | 0.00 | 0.00 | 0.00 | 65 | 1019.9 |
| 20260903191507 | 70 | 248 | 1.0 | 3.0 | 0.00 | 0.00 | 0.00 | 64 | 1020.0 |
| 20260903191008 | 71 | 198 | 1.0 | 3.0 | 0.00 | 0.00 | 0.00 | 64 | 1020.0 |
| 20260903190507 | 71 | 278 | 0.0 | 5.0 | 0.00 | 0.00 | 0.00 | 63 | 1020.1 |
| 20260903190007 | 71 | 236 | 2.0 | 5.0 | 0.00 | 0.00 | 0.00 | 62 | 1020.3 |